Find Kosmos-2181

NORAD ID: 21902 Int'l Des: 1992-012 Owner: VMFR Country: RU operational
LEOCIRCULARPOLAR

Live Position

Loading 3D Globe...

About Kosmos-2181

Description loading...

Upcoming Passes

Passes for default location (London). Set your location on the main map for personalized predictions.

Altitude History

Loading altitude history...

Two-Line Element Set

1 21902U 92012A 26110.11144450 .00000049 00000-0 37617-4 0 9999
2 21902 82.9462 350.8018 0027225 239.7829 274.1640 13.72567378708356
Epoch: Apr 20, 2026 • Age: 22 hours

Current Status

Altitude 1019.2 km
Velocity 7.34 km/s
Sub-Earth Point 80.36°N, 102.57°W
Launch Date Mar 9, 1992
Age 34.1 years
Type other

Technical Details

Classification Payload
Mass 800.00 kg
Dry Mass 800.00 kg
Total Mass 800.00 kg
Length 5.00 m
Diameter 2.10 m
Span 17.00 m
Shape Cyl + Ant
Manufacturer POL
Bus Type KAUR-1 11F643
Phase Status In Orbit
Owner/State VMFR/RU

Most Searched